Location: Kosice
(0.0000°N, 21.2500°E)
Time: 06:06:48
(UTC+01:00)

H-2A R/B - Pass Details

Date: 24 January 2021
Orbit: 734 x 836 km, 98.2° (Epoch: 04 March)

Event Time Altitude Azimuth Distance (km) Brightness Sun altitude
Rises 18:32:12 0° 159° (SSE) 3,159 5.2 -10.6°
Reaches altitude 10° 18:34:32 10° 154° (SSE) 2,235 4.4 -11.2°
Maximum altitude 18:39:17 52° 78° (ENE) 909 2.0 -12.3°
Drops below altitude 10° 18:44:05 10° 2° (N) 2,251 4.2 -13.4°
Sets 18:46:25 0° 357° (N) 3,184 5.0 -14.0°
